Theta_e
315 311 310 311 311 312 312 313 313 312 311 312 315 316 315 314 315 313 315 315 315 315
315 312 311 311 312 312 313 313 313 312 312 312 314 316 316 314 312 313 313 313 314 315
316 314 313 312 308 309 311 313 313 313 315 315 314 315 315 316 315 314 314 316 314 315
317 315 314 311 309 309 309 310 311 313 314 316 315 315 315 315 315 314 314 314 314 315
318 316 314 312 311 311 309 310 311 311 312 313 314 316 314 313 314 313 313 313 313 314
318 317 315 314 313 312 311 310 310 311 310 311 312 313 313 314 313 313 315 315 314 314
316 317 318 317 316 314 313 311 311 311 311 311 311 312 312 312 312 312 312 313 314 315
316 317 317 318 318 317 315 313 313 311 311 311 311 311 311 312 311 311 311 312 312 312
316 316 316 316 318 318 317 317 315 313 311 310 311 303 300 306 310 310 310 309 310 311
318 317 316 317 317 317 317 318 317 315 313 312 312 301 299 298 309 309 309 310 310 310
317 318 319 317 317 317 317 316 317 317 317 316 315 301 299 296 307 309 309 310 311 311
306 309 314 318 318 318 318 317 317 317 317 318 318 301 300 299 308 310 311 312 313 313
299 302 303 305 311 319 319 318 318 318 318 312 318 304 299 300 314 311 310 311 295 290
293 295 296 298 299 300 305 317 316 311 293 290 288 291 291 296 308 310 306 298 285 286
Wind_Speed
13 8 8 10 9 8 9 9 8 7 7 6 9 9 8 6 5 6 6 9 8 5
12 11 11 12 11 9 9 7 9 8 9 7 8 8 8 5 5 5 6 6 6 5
13 13 12 11 11 11 11 12 11 10 11 11 10 10 10 9 7 9 7 7 8 7
13 14 12 10 11 12 11 12 12 13 13 12 13 12 11 11 10 12 12 10 10 13
13 14 14 13 13 12 13 12 14 13 14 14 13 13 13 14 13 13 14 13 12 14
15 15 15 15 14 14 13 14 14 15 15 16 15 15 14 15 15 15 16 16 15 16
16 15 16 15 16 16 16 16 16 16 15 16 16 17 17 17 16 16 15 15 17 16
16 16 15 16 16 16 16 16 16 16 17 16 16 14 18 18 18 17 17 16 16 16
14 15 16 16 15 16 17 17 17 19 18 18 14 19 20 19 17 18 18 19 18 17
10 12 13 12 14 16 17 16 18 18 18 19 20 20 21 23 18 16 18 19 18 17
4 9 14 15 18 18 15 18 17 18 19 18 18 20 22 21 20 20 21 20 19 18
12 10 8 12 16 16 14 15 17 16 17 19 19 17 21 17 17 18 21 20 19 18
11 10 10 10 10 12 13 15 13 15 15 18 18 12 18 19 15 18 15 17 7 8
12 11 10 8 7 10 10 10 10 8 7 10 13 9 16 13 15 14 12 7 3 4
Wind_Direction
172 172 177 180 173 182 184 182 179 176 177 170 190 188 197 198 182 175 189 185 183 169
178 176 184 187 185 184 185 185 181 179 185 180 182 184 185 188 192 177 197 197 195 193
185 189 186 184 186 187 189 191 184 181 191 192 193 193 186 194 193 188 200 200 194 202
186 191 192 189 191 190 186 187 185 189 192 197 200 196 198 199 201 206 211 209 206 211
185 191 197 200 197 195 197 194 197 193 196 202 204 206 209 210 209 206 209 204 207 217
189 192 197 199 199 200 200 203 208 205 204 205 209 212 214 216 218 217 220 218 215 219
199 193 196 198 199 203 202 205 207 213 212 215 215 216 217 218 224 224 225 225 227 225
205 205 200 198 202 202 205 208 208 209 216 217 218 218 218 220 222 224 226 226 226 225
209 210 212 210 202 205 208 207 207 209 211 216 220 218 214 217 223 225 226 230 232 233
219 226 230 232 221 215 213 209 211 210 211 217 221 214 210 209 226 228 230 231 232 234
314 226 220 218 223 227 220 221 223 219 216 219 226 209 208 205 218 227 232 232 232 232
347 336 318 231 228 226 221 223 226 228 229 227 233 213 211 199 220 230 235 233 232 230
357 359 346 343 327 256 225 224 223 230 229 229 238 233 220 208 221 226 230 232 218 222
4 359 1 357 5 360 339 256 223 213 50 37 20 9 345 246 213 224 226 215 82 33